FENGYUN 1C DEB

Satellite information

Favourite Embed

Satellite Type and Status

DEBRISIN ORBIT

Key statistics

Satellite FENGYUN 1C DEB at a glance.

Uptime

9715

Days in orbit

Revolutions

≈ 14.5

Per day

Orbit

SSO

Sun Synchronous Orbit

Inclination

98.4

Latest

Satellite identification and parameters

Extended collection of information and parameters for FENGYUN 1C DEB.

Object identification

Identified? True

Debris? True

Object name: FENGYUN 1C DEB

International designator: 1999-025EJE

Object number (NORAD): 37460

Object ID (CCSDS): 37460

Country: PEOPLES REPUBLIC OF CHINA (PRC)

Current information (Y/N): Y

RCS size: SMALL

Orbital parameters

Period: 99.458 minutes

Inclination: 98.3779 deg

SMA: 7110.848 km

Apoapsis: 772.953 km

Periapsis: 692.472 km

RAAN: 158.3686 deg

Eccentricy: 0.00565903

Argument of periapsis: 303.3518 deg

Mean anomaly: 56.2265 deg

Mean motion: 14.47840336 rev/day

Mean motion (dot): 0.00010316 rev/day2

B* drag term: 0.0027403859 1/REarth

Two-line elements (TLE)

Creation date: Dec. 8, 2025, 6:20 p.m.

Reference frame: TEME

Reference center: EARTH

Epoch: Dec. 8, 2025, 10:53 a.m. UTC

TLE line 0: 0 FENGYUN 1C DEB

TLE line 1: 1 37460U 99025EJE 25342.45353365 .00010316 00000-0 27404-2 0 9995

TLE line 2: 2 37460 98.3779 158.3686 0056590 303.3518 56.2265 14.47840336824279

Live tracking on map

Real-time ground track for satellite FENGYUN 1C DEB.

In-orbit conjunctions

A list of the most updated potential collisions computed for object FENGYUN 1C DEB.

Target Orbit TCA Probability of collision Miss distance Type
COSMOS 372 LEO 2025-12-11 05:47:40 0.0003405176 337.0 (m) PAYLOAD
CZ-6A DEB SSO 2025-01-19 05:24:14 0.0001108609 872.0 (m) DEBRIS
CZ-6A DEB LEO 2025-01-05 19:00:06 0.0001120641 977.0 (m) DEBRIS
CZ-6A DEB LEO 2024-12-26 07:16:18 0.0001146379 243.0 (m) DEBRIS

Associated space launch

Chinese polar orbiting meteorological satellite

FENGYUN 1C DEB was lifted into orbit during the mission ‘Long March 4B | Feng Yun 1C’, on board a Long March 4B space rocket.

The launch took place on May 10, 1999, 1:33 a.m. from Launch Complex 7.

For more information about the launch, click the button.

Launch to space Long March 4B | Feng Yun 1C
Long March 4B | Feng Yun 1C

Agency: N/A

Status: Launch Successful

Launch date: May 10, 1999, 1:33 a.m. UTC

Rocket: Long March 4B

Launch pad: Launch Complex 7

Location: Taiyuan Satellite Launch Center, People's Republic of China

...

Latest news about this satellite

There are no fresh news available about this satellite. Check back as we update our databases every day.


Newsletter sign-up

Weekly statistics, charts and insights to help you stay on top of the space industry.